Location: Bacharowice
(49.9333°N, 19.5833°E)
Time: 23:53:30
(UTC+00:00)

Spot 2 Rocket - Pass Details

Date: 11 May 2021
Orbit: 758 x 771 km, 98.5° (Epoch: 21 June)

Event Time Altitude Azimuth Distance (km) Brightness Sun altitude
Exits shadow 20:22:05 16° 188° (S) 1,920 5.1 -15.6°
Maximum altitude 20:26:00 50° 260° (W) 962 4.1 -16.0°
Drops below altitude 10° 20:30:56 10° 336° (NNW) 2,300 7.3 -16.4°
Sets 20:33:19 0° 342° (NNW) 3,230 8.3 -16.6°
